"Period start","avg(HW err(1)/warn(2) (#))","avg(Visibility (m))","avg(Weather code (#))","avg(Precip intensity (mm/h))","min(HW err(1)/warn(2) (#))","max(HW err(1)/warn(2) (#))","std(HW err(1)/warn(2) (#))","med(HW err(1)/warn(2) (#))","min(Visibility (m))","max(Visibility (m))","std(Visibility (m))","med(Visibility (m))","min(Weather code (#))","max(Weather code (#))","std(Weather code (#))","med(Weather code (#))","min(Precip intensity (mm/h))","max(Precip intensity (mm/h))","std(Precip intensity (mm/h))","med(Precip intensity (mm/h))"
2017-04-17 00:00:00,2,11295,71,0.33,2,2,0,2,8159,13405,1789,11456,71,71,0,71,0.10,0.60,0.17,0.33
2017-04-17 00:10:00,2,11422,71,0.29,2,2,0,2,8058,15885,2200,11167,71,71,0,71,0.00,0.80,0.26,0.25
2017-04-17 00:20:00,2,9306,71,0.36,2,2,0,2,5386,11066,1552,9937,71,71,0,71,0.05,0.65,0.19,0.35
2017-04-17 00:30:00,2,7400,71,0.46,2,2,0,2,5742,8747,950,7686,71,71,0,71,0.15,0.80,0.22,0.47
2017-04-17 00:40:00,2,6706,71,0.52,2,2,0,2,4873,8700,1226,6377,71,71,0,71,0.10,1.50,0.41,0.40
2017-04-17 00:50:00,2,5915,71,0.88,2,2,0,2,4340,7353,1135,5590,71,71,0,71,0.35,1.75,0.37,0.75
2017-04-17 01:00:00,2,5491,71,1.06,2,2,0,2,4254,6758,785,5481,71,71,0,71,0.40,2.30,0.60,0.92
2017-04-17 01:10:00,2,4250,71,1.15,2,2,0,2,3393,5001,548,4357,71,71,0,71,0.75,1.60,0.27,1.10
2017-04-17 01:20:00,2,4489,71,0.72,2,2,0,2,2980,5892,901,4742,71,71,0,71,0.30,1.10,0.23,0.75
2017-04-17 01:30:00,2,4074,71,0.79,2,2,0,2,3113,5413,615,4040,71,71,0,71,0.35,1.65,0.42,0.70
2017-04-17 01:40:00,2,4353,71,0.79,2,2,0,2,3789,4947,369,4301,71,71,0,71,0.35,1.35,0.31,0.73
2017-04-17 01:50:00,2,4327,71,0.76,2,2,0,2,3616,5377,634,4160,71,71,0,71,0.20,1.75,0.46,0.62
2017-04-17 02:00:00,2,4415,71,0.81,2,2,0,2,3899,4955,257,4460,71,71,0,71,0.40,1.35,0.25,0.78
2017-04-17 02:10:00,2,4396,71,0.80,2,2,0,2,3570,5178,507,4280,71,71,0,71,0.15,1.70,0.49,0.80
2017-04-17 02:20:00,2,4300,71,1.31,2,2,0,2,3181,4932,454,4354,71,71,0,71,0.25,2.00,0.62,1.52
2017-04-17 02:30:00,2,4450,71,1.24,2,2,0,2,3538,5355,577,4432,71,71,0,71,0.60,2.20,0.45,1.18
2017-04-17 02:40:00,2,4968,71,1.09,2,2,0,2,4293,6868,694,4767,71,71,0,71,0.60,1.75,0.38,1.02
2017-04-17 02:50:00,2,6191,71,0.71,2,2,0,2,4621,8000,1012,6176,71,71,0,71,0.20,1.10,0.29,0.75
2017-04-17 03:00:00,2,5629,71,1.17,2,2,0,2,4186,6789,814,5622,71,71,0,71,0.30,1.60,0.34,1.20
2017-04-17 03:10:00,2,4898,71,1.47,2,2,0,2,3762,6448,970,4636,71,71,0,71,0.60,3.10,0.67,1.40
2017-04-17 03:20:00,2,4140,71,1.64,2,2,0,2,2562,5517,763,4240,71,71,0,71,0.95,2.65,0.56,1.50
2017-04-17 03:30:00,2,4217,71,1.71,2,2,0,2,3217,5182,647,4376,71,71,0,71,0.85,2.75,0.56,1.58
2017-04-17 03:40:00,2,4840,71,1.52,2,2,0,2,3032,6347,928,4645,71,71,0,71,0.90,2.65,0.56,1.35
2017-04-17 03:50:00,2,5770,71,1.20,2,2,0,2,4222,8724,1308,5808,71,71,0,71,0.25,2.40,0.58,1.23
2017-04-17 04:00:00,2,4936,71,1.26,2,2,0,2,3507,6293,790,4898,71,71,0,71,0.55,2.35,0.49,1.18
2017-04-17 04:10:00,2,6217,71,0.96,2,2,0,2,4784,8372,1015,6080,71,71,0,71,0.35,1.80,0.43,0.88
2017-04-17 04:20:00,2,7332,71,0.61,2,2,0,2,4359,9146,1305,7684,71,71,0,71,0.25,0.80,0.18,0.70
2017-04-17 04:30:00,2,8071,71,0.42,2,2,0,2,4663,10209,2007,8984,71,71,0,71,0.15,0.85,0.26,0.33
2017-04-17 04:40:00,2,6191,71,0.84,2,2,0,2,4658,7307,783,6280,71,71,0,71,0.15,1.30,0.29,0.90
2017-04-17 04:50:00,2,5992,71,0.69,2,2,0,2,3547,8218,1390,5572,71,71,0,71,0.25,1.45,0.38,0.60
2017-04-17 05:00:00,2,9137,71,0.40,2,2,0,2,5111,11629,1698,9680,71,71,0,71,0.05,1.15,0.35,0.25
2017-04-17 05:10:00,2,11095,71,0.16,2,2,0,2,9125,14038,1559,10680,71,71,0,71,0.00,0.50,0.16,0.15
2017-04-17 05:20:00,2,10734,71,0.12,2,2,0,2,6420,14135,2035,10630,71,71,0,71,0.00,0.35,0.11,0.08
2017-04-17 05:30:00,2,10670,71,0.12,2,2,0,2,8146,12847,1217,10588,71,71,0,71,0.00,0.75,0.23,0.03
2017-04-17 05:40:00,2,11304,71,0.10,2,2,0,2,9690,13288,1133,11428,71,71,0,71,0.00,0.80,0.24,0.00
2017-04-17 05:50:00,2,10356,71,0.04,2,2,0,2,6669,13567,2082,10540,71,71,0,71,0.00,0.15,0.06,0.00
2017-04-17 06:00:00,2,10934,71,0.11,2,2,0,2,7727,13025,1605,11242,71,71,0,71,0.00,0.20,0.09,0.12
2017-04-17 06:10:00,2,11102,71,0.06,2,2,0,2,10128,13031,814,10956,71,71,0,71,0.00,0.20,0.06,0.05
2017-04-17 06:20:00,2,11259,71,0.07,2,2,0,2,7249,14097,1729,11458,71,71,0,71,0.00,0.25,0.09,0.00
2017-04-17 06:30:00,2,15654,28,0.01,2,2,0,2,10673,21654,3384,15526,0,71,35,0,0.00,0.05,0.02,0.00
2017-04-17 06:40:00,2,17456,28,0.01,2,2,0,2,13035,26167,3557,15859,0,71,35,0,0.00,0.05,0.02,0.00
2017-04-17 06:50:00,2,14547,0,0.00,2,2,0,2,8187,18940,2618,14678,0,0,0,0,0.00,0.00,0.00,0.00
2017-04-17 07:00:00,2,21688,0,0.00,2,2,0,2,16222,29961,4118,20812,0,0,0,0,0.00,0.00,0.00,0.00
2017-04-17 07:10:00,2,19245,0,0.00,2,2,0,2,15310,26612,3585,18236,0,0,0,0,0.00,0.00,0.00,0.00
2017-04-17 07:20:00,2,19837,0,0.00,2,2,0,2,16420,26654,2936,19298,0,0,0,0,0.00,0.00,0.00,0.00
2017-04-17 07:30:00,2,22126,0,0.00,2,2,0,2,15311,33133,5946,19845,0,0,0,0,0.00,0.00,0.00,0.00
2017-04-17 07:40:00,2,18645,0,0.00,2,2,0,2,16918,21152,1216,18685,0,0,0,0,0.00,0.00,0.00,0.00
2017-04-17 07:50:00,2,21679,0,0.00,2,2,0,2,17070,30289,4284,20436,0,0,0,0,0.00,0.00,0.00,0.00
2017-04-17 08:00:00,2,21954,0,0.00,2,2,0,2,15235,26775,3643,22930,0,0,0,0,0.00,0.00,0.00,0.00
2017-04-17 08:10:00,2,25011,0,0.00,2,2,0,2,15724,31977,5038,25434,0,0,0,0,0.00,0.00,0.00,0.00
2017-04-17 08:20:00,2,26589,0,0.00,2,2,0,2,20361,34169,4286,25006,0,0,0,0,0.00,0.00,0.00,0.00
2017-04-17 08:30:00,2,24079,0,0.00,2,2,0,2,16332,31976,5229,25332,0,0,0,0,0.00,0.00,0.00,0.00
2017-04-17 08:40:00,2,10806,71,0.11,2,2,0,2,6163,17097,3948,9916,71,71,0,71,0.00,0.20,0.07,0.10
2017-04-17 08:50:00,2,28950,14,0.00,2,2,0,2,20310,36596,4992,28576,0,71,28,0,0.00,0.00,0.00,0.00
2017-04-17 09:00:00,2,33338,0,0.00,2,2,0,2,26070,42730,4347,33554,0,0,0,0,0.00,0.00,0.00,0.00
2017-04-17 09:10:00,2,32045,0,0.00,2,2,0,2,19542,42396,5814,31868,0,0,0,0,0.00,0.00,0.00,0.00
2017-04-17 09:20:00,2,34988,0,0.00,2,2,0,2,26455,43982,4717,34835,0,0,0,0,0.00,0.00,0.00,0.00
2017-04-17 09:30:00,2,32548,22,0.00,2,2,0,2,24235,41452,4632,32238,0,78,34,0,0.00,0.00,0.00,0.00
2017-04-17 09:40:00,2,40516,0,0.00,2,2,0,2,33500,45049,3242,40856,0,0,0,0,0.00,0.00,0.00,0.00
2017-04-17 09:50:00,2,35079,0,0.00,2,2,0,2,26627,43911,5217,35770,0,0,0,0,0.00,0.00,0.00,0.00
2017-04-17 10:00:00,2,37142,0,0.00,2,2,0,2,28493,48162,6598,34960,0,0,0,0,0.00,0.00,0.00,0.00
2017-04-17 10:10:00,2,37165,0,0.00,2,2,0,2,29912,44930,5259,37234,0,0,0,0,0.00,0.00,0.00,0.00
2017-04-17 10:20:00,2,33930,0,0.00,2,2,0,2,26677,42021,4157,35014,0,0,0,0,0.00,0.00,0.00,0.00
2017-04-17 10:30:00,2,35380,0,0.00,2,2,0,2,29137,39225,3371,36800,0,0,0,0,0.00,0.00,0.00,0.00
2017-04-17 10:40:00,2,36041,0,0.00,2,2,0,2,32080,42939,2964,36150,0,0,0,0,0.00,0.00,0.00,0.00
2017-04-17 10:50:00,2,39999,0,0.00,2,2,0,2,35300,47357,3743,39426,0,0,0,0,0.00,0.00,0.00,0.00
2017-04-17 11:00:00,2,43461,0,0.00,2,2,0,2,40847,46409,1573,43550,0,0,0,0,0.00,0.00,0.00,0.00
2017-04-17 11:10:00,2,48024,0,0.00,2,2,0,2,41678,50000,2581,48811,0,0,0,0,0.00,0.00,0.00,0.00
2017-04-17 11:20:00,2,47786,0,0.00,2,2,0,2,45092,50000,1635,47448,0,0,0,0,0.00,0.00,0.00,0.00
2017-04-17 11:30:00,2,44505,0,0.00,2,2,0,2,38855,49705,3390,44778,0,0,0,0,0.00,0.00,0.00,0.00
2017-04-17 11:40:00,2,45284,0,0.00,2,2,0,2,37357,50000,3938,46034,0,0,0,0,0.00,0.00,0.00,0.00
2017-04-17 11:50:00,2,47315,0,0.00,2,2,0,2,43913,50000,2192,48234,0,0,0,0,0.00,0.00,0.00,0.00
2017-04-17 12:00:00,2,44673,0,0.00,2,2,0,2,37055,50000,3892,44706,0,0,0,0,0.00,0.00,0.00,0.00
2017-04-17 12:10:00,2,46416,0,0.00,2,2,0,2,43131,50000,1770,46621,0,0,0,0,0.00,0.00,0.00,0.00
2017-04-17 12:20:00,2,49030,0,0.00,2,2,0,2,46129,50000,1485,50000,0,0,0,0,0.00,0.00,0.00,0.00
2017-04-17 12:30:00,2,46372,0,0.00,2,2,0,2,40969,50000,2653,46914,0,0,0,0,0.00,0.00,0.00,0.00
2017-04-17 12:40:00,2,48037,0,0.00,2,2,0,2,43309,50000,2264,48867,0,0,0,0,0.00,0.00,0.00,0.00
2017-04-17 12:50:00,2,48471,0,0.00,2,2,0,2,41329,50000,2655,49828,0,0,0,0,0.00,0.00,0.00,0.00
2017-04-17 13:00:00,2,49480,0,0.00,2,2,0,2,47485,50000,882,50000,0,0,0,0,0.00,0.00,0.00,0.00
2017-04-17 13:10:00,2,49173,0,0.00,2,2,0,2,45553,50000,1415,50000,0,0,0,0,0.00,0.00,0.00,0.00
2017-04-17 13:20:00,2,49267,0,0.00,2,2,0,2,47327,50000,1029,49980,0,0,0,0,0.00,0.00,0.00,0.00
2017-04-17 13:30:00,2,48129,0,0.00,2,2,0,2,43996,50000,2157,48876,0,0,0,0,0.00,0.00,0.00,0.00
2017-04-17 13:40:00,2,49662,0,0.00,2,2,0,2,47739,50000,723,50000,0,0,0,0,0.00,0.00,0.00,0.00
2017-04-17 13:50:00,2,33087,0,0.00,2,2,0,2,19852,50000,11963,28688,0,0,0,0,0.00,0.00,0.00,0.00
2017-04-17 14:00:00,2,19519,0,0.00,2,2,0,2,15686,26661,3733,17808,0,0,0,0,0.00,0.00,0.00,0.00
2017-04-17 14:10:00,2,18132,28,0.06,2,2,0,2,10182,23266,3742,19996,0,71,35,0,0.00,0.30,0.11,0.00
2017-04-17 14:20:00,2,15377,71,0.19,2,2,0,2,6331,25507,6197,14666,71,71,0,71,0.00,0.70,0.22,0.10
2017-04-17 14:30:00,2,11344,71,0.10,2,2,0,2,9128,16607,2119,10701,71,71,0,71,0.00,0.20,0.08,0.08
2017-04-17 14:40:00,2,10577,71,0.23,2,2,0,2,7973,12739,1444,10826,71,71,0,71,0.05,0.45,0.13,0.17
2017-04-17 14:50:00,2,9817,71,0.21,2,2,0,2,6895,13236,2240,9506,71,71,0,71,0.05,0.65,0.21,0.10
2017-04-17 15:00:00,2,14875,71,0.20,2,2,0,2,4573,29280,7914,12824,71,71,0,71,0.00,0.90,0.28,0.05
2017-04-17 15:10:00,2,24138,71,0.09,2,2,0,2,4272,39694,12154,24408,71,71,0,71,0.00,0.55,0.17,0.00
2017-04-17 15:20:00,2,25664,75,0.01,2,2,0,2,19800,33627,3585,25528,71,78,3,77,0.00,0.05,0.02,0.00
2017-04-17 15:30:00,2,24665,75,0.01,2,2,0,2,13123,34372,5998,25485,71,78,3,77,0.00,0.15,0.05,0.00
2017-04-17 15:40:00,2,15736,74,0.14,2,2,0,2,5489,32361,7384,13864,71,77,3,74,0.00,0.65,0.22,0.05
2017-04-17 15:50:00,2,8991,71,0.26,2,2,0,2,3518,22700,5382,7068,71,71,0,71,0.00,0.90,0.31,0.08
2017-04-17 16:00:00,2,8167,71,0.28,2,2,0,2,2117,13617,3494,7218,71,71,0,71,0.00,0.65,0.21,0.28
2017-04-17 16:10:00,2,14755,71,0.12,2,2,0,2,9070,28094,5603,12252,71,71,0,71,0.00,0.45,0.14,0.08
2017-04-17 16:20:00,2,15869,71,0.07,2,2,0,2,9548,22873,4606,15974,71,71,0,71,0.00,0.20,0.08,0.05
2017-04-17 16:30:00,2,11202,71,0.26,2,2,0,2,2692,24590,7485,10736,71,71,0,71,0.00,0.85,0.28,0.17
2017-04-17 16:40:00,2,7331,71,0.25,2,2,0,2,2651,11396,3001,8208,71,71,0,71,0.05,0.65,0.20,0.20
2017-04-17 16:50:00,2,5028,71,0.48,2,2,0,2,1683,10735,2338,4939,71,71,0,71,0.15,1.15,0.35,0.33
2017-04-17 17:00:00,2,4393,71,0.72,2,2,0,2,2105,8748,2025,3618,71,71,0,71,0.20,2.30,0.60,0.60
2017-04-17 17:10:00,2,3763,71,0.74,2,2,0,2,2828,4647,581,3678,71,71,0,71,0.40,1.15,0.21,0.70
2017-04-17 17:20:00,2,4094,71,0.76,2,2,0,2,2332,7363,1305,3754,71,71,0,71,0.40,1.70,0.37,0.70
2017-04-17 17:30:00,2,5758,71,0.62,2,2,0,2,2816,7826,1588,5700,71,71,0,71,0.20,1.55,0.39,0.57
2017-04-17 17:40:00,2,5062,71,0.76,2,2,0,2,3658,7809,1286,4840,71,71,0,71,0.30,1.20,0.36,0.80
2017-04-17 17:50:00,2,4235,71,0.63,2,2,0,2,1915,6430,1321,4396,71,71,0,71,0.30,0.85,0.16,0.65
2017-04-17 18:00:00,2,5110,71,0.57,2,2,0,2,3585,7770,1462,4808,71,71,0,71,0.25,1.20,0.31,0.47
2017-04-17 18:10:00,2,6099,71,0.37,2,2,0,2,3712,8008,1284,6246,71,71,0,71,0.15,1.35,0.34,0.23
2017-04-17 18:20:00,2,5524,71,0.34,2,2,0,2,3410,7997,1735,4838,71,71,0,71,0.05,0.90,0.24,0.28
2017-04-17 18:30:00,2,4962,71,0.52,2,2,0,2,2250,9909,2083,4146,71,71,0,71,0.15,1.30,0.38,0.38
2017-04-17 18:40:00,2,5962,71,0.23,2,2,0,2,3409,8962,1508,5941,71,71,0,71,0.00,0.55,0.17,0.17
2017-04-17 18:50:00,2,4698,71,0.53,2,2,0,2,2680,7915,1589,4816,71,71,0,71,0.20,1.25,0.29,0.47
2017-04-17 19:00:00,2,6449,71,0.34,2,2,0,2,4000,9242,1720,6888,71,71,0,71,0.05,0.90,0.24,0.35
2017-04-17 19:10:00,2,10813,71,0.17,2,2,0,2,5078,18910,3600,9714,71,71,0,71,0.00,0.30,0.10,0.20
2017-04-17 19:20:00,2,11864,71,0.15,2,2,0,2,5409,19091,4252,13306,71,71,0,71,0.00,0.45,0.16,0.10
2017-04-17 19:30:00,2,18179,71,0.04,2,2,0,2,5135,31510,7804,19400,71,71,0,71,0.00,0.30,0.09,0.00
2017-04-17 19:40:00,2,13853,74,0.07,2,2,0,2,7903,23731,4783,12868,71,78,3,74,0.00,0.45,0.13,0.03
2017-04-17 19:50:00,2,12988,71,0.12,2,2,0,2,7306,21625,4238,12676,71,71,0,71,0.00,0.65,0.19,0.05
2017-04-17 20:00:00,2,11034,71,0.18,2,2,0,2,6646,18718,3807,9382,71,71,0,71,0.00,0.50,0.17,0.15
2017-04-17 20:10:00,2,17620,71,0.11,2,2,0,2,8606,35602,7961,15479,71,71,0,71,0.00,0.30,0.09,0.10
2017-04-17 20:20:00,2,21451,71,0.08,2,2,0,2,14061,28883,5391,22066,71,71,0,71,0.00,0.50,0.16,0.00
2017-04-17 20:30:00,2,25404,73,0.07,2,2,0,2,10043,44607,10726,23656,71,77,3,71,0.00,0.30,0.09,0.05
2017-04-17 20:40:00,2,15996,71,0.18,2,2,0,2,11192,25134,4890,14312,71,71,0,71,0.05,0.30,0.07,0.20
2017-04-17 20:50:00,2,16823,71,0.17,2,2,0,2,12433,20458,2293,16984,71,71,0,71,0.00,0.50,0.15,0.17
2017-04-17 21:00:00,2,29384,71,0.07,2,2,0,2,11364,43699,10742,29138,71,71,0,71,0.00,0.35,0.11,0.00
2017-04-17 21:10:00,2,32022,71,0.03,2,2,0,2,15708,49476,9203,31630,71,71,0,71,0.00,0.15,0.05,0.00
2017-04-17 21:20:00,2,34470,74,0.01,2,2,0,2,24870,40021,4007,34567,71,78,3,71,0.00,0.05,0.02,0.00
2017-04-17 21:30:00,2,31859,22,0.00,2,2,0,2,22278,41729,6086,31216,0,78,34,0,0.00,0.00,0.00,0.00
2017-04-17 21:40:00,2,23578,43,0.01,2,2,0,2,13828,43648,10040,17878,0,71,35,71,0.00,0.15,0.05,0.00
2017-04-17 21:50:00,2,15277,77,0.04,2,2,0,2,11614,20763,2675,14409,77,78,0,77,0.00,0.25,0.07,0.00
2017-04-17 22:00:00,2,22453,71,0.07,2,2,0,2,13546,30805,4933,23447,71,71,0,71,0.00,0.20,0.07,0.05
2017-04-17 22:10:00,2,16263,71,0.11,2,2,0,2,7832,27943,5642,14712,71,71,0,71,0.00,0.55,0.18,0.05
2017-04-17 22:20:00,2,16802,71,0.11,2,2,0,2,9942,31035,5896,16383,71,71,0,71,0.00,0.30,0.10,0.10
2017-04-17 22:30:00,2,22485,71,0.06,2,2,0,2,11916,34024,6648,23126,71,71,0,71,0.00,0.20,0.08,0.00
2017-04-17 22:40:00,2,28658,36,0.06,2,2,0,2,15077,34439,7265,32998,0,71,36,36,0.00,0.35,0.12,0.00
2017-04-17 22:50:00,2,22009,14,0.01,2,2,0,2,3805,36160,8922,25262,0,71,28,0,0.00,0.05,0.02,0.00
2017-04-17 23:00:00,2,17332,32,0.07,2,2,0,2,6442,31169,7345,16326,0,71,34,20,0.00,0.50,0.15,0.00
2017-04-17 23:10:00,2,18261,28,0.03,2,2,0,2,5999,25345,5137,18789,0,71,35,0,0.00,0.25,0.08,0.00
2017-04-17 23:20:00,2,13072,43,0.09,2,2,0,2,6428,18769,4094,12932,0,71,35,71,0.00,0.35,0.13,0.00
2017-04-17 23:30:00,2,16748,66,0.02,2,2,0,2,6947,26366,5434,17824,0,78,22,71,0.00,0.05,0.02,0.00
2017-04-17 23:40:00,2,19375,71,0.09,2,2,0,2,6374,31911,7681,18984,71,71,0,71,0.00,0.35,0.14,0.00
2017-04-17 23:50:00,2,20330,36,0.01,2,2,0,2,8160,32833,7879,21127,0,71,36,36,0.00,0.15,0.05,0.00
